• In Deutschland
  • Länderverzeichnis
  • Für 7 Tage
  • Wassertemperatur
  • Satellitenkarten
  • Wetterkarte
  • Widgets
  • user-avatar
    Anmelden

    Stündliche Wetter Hoeryŏng

    Heute, 18 August, Freitag

    Zeit Temperatur Niederschläge Wind Luftdruck Luftfeuchtigkeit
    00:00 +24°C° 0,7 mm 1 m/S 751 mmHg 87%
    01:00 +24°C° 0,7 mm 1 m/S 751 mmHg 88%
    02:00 +24°C° 0 mm 1 m/S 751 mmHg 89%
    03:00 +24°C° 0,4 mm 1 m/S 751 mmHg 89%
    04:00 +24°C° 0,4 mm 1 m/S 751 mmHg 89%
    05:00 +24°C° 0,4 mm 1 m/S 751 mmHg 89%
    06:00 +25°C° 0,8 mm 1 m/S 752 mmHg 87%
    07:00 +25°C° 0,8 mm 1 m/S 752 mmHg 86%
    08:00 +27°C° 0 mm 1 m/S 752 mmHg 83%
    09:00 +27°C° 0,5 mm 1 m/S 752 mmHg 80%
    10:00 +28°C° 0,5 mm 2 m/S 752 mmHg 77%
    11:00 +29°C° 0,5 mm 2 m/S 752 mmHg 73%
    12:00 +29°C° 1 mm 2 m/S 752 mmHg 72%
    13:00 +30°C° 1 mm 2 m/S 752 mmHg 70%
    14:00 +30°C° 1 mm 2 m/S 751 mmHg 68%
    15:00 +30°C° 1,1 mm 2 m/S 751 mmHg 71%
    16:00 +30°C° 1,1 mm 2 m/S 752 mmHg 73%
    17:00 +29°C° 1,1 mm 1 m/S 752 mmHg 75%
    18:00 +28°C° 0,6 mm 1 m/S 752 mmHg 78%
    19:00 +27°C° 0,6 mm 1 m/S 752 mmHg 80%
    20:00 +26°C° 0,6 mm 1 m/S 752 mmHg 83%
    21:00 +26°C° 0,2 mm 1 m/S 753 mmHg 84%
    22:00 +25°C° 0,2 mm 1 m/S 753 mmHg 84%
    23:00 +25°C° 0,2 mm 1 m/S 753 mmHg 85%

    Morgen, 19 August, Samstag

    Zeit Temperatur Niederschläge Wind Luftdruck Luftfeuchtigkeit
    00:00 +25°C° 0 mm 1 m/S 753 mmHg 86%
    01:00 +24°C° 0 mm 1 m/S 753 mmHg 87%
    02:00 +24°C° 0 mm 1 m/S 753 mmHg 88%
    03:00 +24°C° 0 mm 1 m/S 753 mmHg 88%
    04:00 +24°C° 0 mm 1 m/S 753 mmHg 89%
    05:00 +24°C° 0 mm 1 m/S 753 mmHg 89%
    06:00 +25°C° 0 mm 1 m/S 753 mmHg 85%
    07:00 +26°C° 0 mm 1 m/S 754 mmHg 81%
    08:00 +28°C° 0 mm 1 m/S 754 mmHg 77%
    09:00 +29°C° 0,2 mm 1 m/S 754 mmHg 73%
    10:00 +30°C° 0,2 mm 1 m/S 754 mmHg 68%
    11:00 +31°C° 0,2 mm 1 m/S 754 mmHg 64%
    12:00 +31°C° 0,4 mm 1 m/S 753 mmHg 64%
    13:00 +31°C° 0,4 mm 1 m/S 753 mmHg 64%
    14:00 +31°C° 0,4 mm 1 m/S 753 mmHg 64%
    15:00 +31°C° 0,7 mm 1 m/S 753 mmHg 68%
    16:00 +30°C° 0,7 mm 1 m/S 753 mmHg 72%
    17:00 +29°C° 0,7 mm 1 m/S 753 mmHg 77%
    18:00 +28°C° 0,9 mm 1 m/S 753 mmHg 79%
    19:00 +27°C° 0,9 mm 1 m/S 753 mmHg 81%
    20:00 +26°C° 0,9 mm 1 m/S 753 mmHg 83%
    21:00 +26°C° 1 mm 1 m/S 753 mmHg 84%
    22:00 +26°C° 1 mm 1 m/S 753 mmHg 85%
    23:00 +25°C° 1 mm 1 m/S 753 mmHg 86%

    übermorgen, 20 August, Sonntag

    Zeit Temperatur Niederschläge Wind Luftdruck Luftfeuchtigkeit
    00:00 +25°C° 1,4 mm 1 m/S 753 mmHg 87%
    01:00 +25°C° 1,4 mm 1 m/S 753 mmHg 88%
    02:00 +25°C° 1,4 mm 1 m/S 753 mmHg 89%
    03:00 +25°C° 1,4 mm 1 m/S 752 mmHg 90%
    04:00 +25°C° 1,4 mm 2 m/S 752 mmHg 90%
    05:00 +24°C° 1,4 mm 2 m/S 752 mmHg 91%
    06:00 +24°C° 2,1 mm 2 m/S 752 mmHg 91%
    07:00 +25°C° 2,1 mm 2 m/S 752 mmHg 90%
    08:00 +25°C° 2,1 mm 2 m/S 752 mmHg 90%
    09:00 +25°C° 2,9 mm 2 m/S 752 mmHg 90%
    10:00 +25°C° 2,9 mm 3 m/S 752 mmHg 89%
    11:00 +25°C° 2,9 mm 3 m/S 752 mmHg 89%
    12:00 +25°C° 2,8 mm 3 m/S 751 mmHg 89%
    13:00 +25°C° 2,8 mm 3 m/S 751 mmHg 90%
    14:00 +25°C° 2,8 mm 3 m/S 750 mmHg 90%
    15:00 +25°C° 3,2 mm 3 m/S 750 mmHg 90%
    16:00 +25°C° 3,2 mm 3 m/S 750 mmHg 91%
    17:00 +25°C° 3,2 mm 3 m/S 750 mmHg 92%
    18:00 +25°C° 3,4 mm 3 m/S 750 mmHg 92%
    19:00 +25°C° 3,4 mm 3 m/S 750 mmHg 92%
    20:00 +25°C° 3,4 mm 2 m/S 750 mmHg 92%
    21:00 +25°C° 1,5 mm 2 m/S 750 mmHg 92%
    22:00 +25°C° 1,5 mm 2 m/S 750 mmHg 92%
    23:00 +25°C° 1,5 mm 2 m/S 750 mmHg 92%

    21 August, Montag

    Zeit Temperatur Niederschläge Wind Luftdruck Luftfeuchtigkeit
    00:00 +25°C° 0,5 mm 1 m/S 750 mmHg 93%
    01:00 +25°C° 0,5 mm 1 m/S 750 mmHg 93%
    02:00 +25°C° 0,5 mm 1 m/S 749 mmHg 93%
    03:00 +25°C° 0,3 mm 1 m/S 749 mmHg 93%
    04:00 +24°C° 0,3 mm 1 m/S 749 mmHg 93%
    05:00 +24°C° 0,3 mm 1 m/S 749 mmHg 93%
    06:00 +25°C° 0,1 mm 1 m/S 750 mmHg 89%
    07:00 +27°C° 0,1 mm 1 m/S 750 mmHg 86%
    08:00 +28°C° 0,1 mm 1 m/S 750 mmHg 82%
    09:00 +29°C° 0,5 mm 2 m/S 750 mmHg 79%
    10:00 +30°C° 0,5 mm 2 m/S 750 mmHg 76%
    11:00 +31°C° 0,5 mm 2 m/S 750 mmHg 73%
    12:00 +31°C° 0,8 mm 3 m/S 749 mmHg 71%
    13:00 +33°C° 0,8 mm 3 m/S 749 mmHg 70%
    14:00 +33°C° 0,8 mm 3 m/S 749 mmHg 69%
    15:00 +31°C° 0,7 mm 3 m/S 749 mmHg 71%
    16:00 +31°C° 0,7 mm 3 m/S 749 mmHg 73%
    17:00 +30°C° 0,7 mm 2 m/S 749 mmHg 75%
    18:00 +29°C° 0,4 mm 2 m/S 750 mmHg 77%
    19:00 +29°C° 0,4 mm 2 m/S 750 mmHg 79%
    20:00 +28°C° 0,4 mm 2 m/S 751 mmHg 81%
    21:00 +27°C° 0,1 mm 2 m/S 751 mmHg 82%
    22:00 +27°C° 0,1 mm 2 m/S 751 mmHg 84%
    23:00 +27°C° 0,1 mm 2 m/S 751 mmHg 85%

    22 August, Dienstag

    Zeit Temperatur Niederschläge Wind Luftdruck Luftfeuchtigkeit
    00:00 +27°C° 0,1 mm 2 m/S 751 mmHg 86%
    01:00 +26°C° 0,1 mm 2 m/S 751 mmHg 87%
    02:00 +26°C° 0,1 mm 2 m/S 751 mmHg 88%
    03:00 +26°C° 0,1 mm 1 m/S 751 mmHg 89%
    04:00 +26°C° 0,1 mm 1 m/S 751 mmHg 89%
    05:00 +26°C° 0,1 mm 1 m/S 751 mmHg 90%
    06:00 +27°C° 0 mm 1 m/S 751 mmHg 86%
    07:00 +28°C° 0 mm 2 m/S 752 mmHg 82%
    08:00 +30°C° 0 mm 2 m/S 752 mmHg 78%
    09:00 +30°C° 0,4 mm 2 m/S 752 mmHg 76%
    10:00 +31°C° 0,4 mm 3 m/S 752 mmHg 73%
    11:00 +33°C° 0,4 mm 3 m/S 752 mmHg 70%
    12:00 +33°C° 0,7 mm 3 m/S 751 mmHg 70%
    13:00 +34°C° 0,7 mm 3 m/S 751 mmHg 69%
    14:00 +34°C° 0,7 mm 3 m/S 751 mmHg 69%
    15:00 +33°C° 0,4 mm 3 m/S 751 mmHg 72%
    16:00 +31°C° 0,4 mm 3 m/S 751 mmHg 74%
    17:00 +31°C° 0,4 mm 2 m/S 751 mmHg 77%
    18:00 +30°C° 0,1 mm 2 m/S 751 mmHg 79%
    19:00 +29°C° 0,1 mm 2 m/S 752 mmHg 81%
    20:00 +28°C° 0,1 mm 1 m/S 752 mmHg 83%
    21:00 +28°C° 0,1 mm 1 m/S 752 mmHg 85%
    22:00 +28°C° 0,1 mm 1 m/S 752 mmHg 86%
    23:00 +28°C° 0,1 mm 1 m/S 752 mmHg 87%

    23 August, Mittwoch

    Zeit Temperatur Niederschläge Wind Luftdruck Luftfeuchtigkeit
    00:00 +27°C° 0,4 mm 1 m/S 752 mmHg 87%
    01:00 +27°C° 0,4 mm 1 m/S 752 mmHg 88%
    02:00 +27°C° 0,4 mm 1 m/S 751 mmHg 88%
    03:00 +27°C° 0,4 mm 1 m/S 751 mmHg 88%
    04:00 +27°C° 0,4 mm 1 m/S 751 mmHg 89%
    05:00 +27°C° 0,4 mm 1 m/S 751 mmHg 89%
    06:00 +27°C° 0,5 mm 1 m/S 751 mmHg 87%
    07:00 +28°C° 0,5 mm 1 m/S 752 mmHg 85%
    08:00 +29°C° 0,5 mm 2 m/S 752 mmHg 83%
    09:00 +29°C° 0,7 mm 2 m/S 751 mmHg 83%
    10:00 +29°C° 0,7 mm 2 m/S 751 mmHg 82%
    11:00 +29°C° 0,7 mm 3 m/S 750 mmHg 82%
    12:00 +30°C° 1 mm 3 m/S 750 mmHg 81%
    13:00 +30°C° 1 mm 3 m/S 750 mmHg 81%
    14:00 +30°C° 1 mm 3 m/S 749 mmHg 81%
    15:00 +30°C° 0,8 mm 3 m/S 749 mmHg 82%
    16:00 +30°C° 0,8 mm 3 m/S 749 mmHg 83%
    17:00 +30°C° 0,8 mm 3 m/S 748 mmHg 84%
    18:00 +29°C° 1,1 mm 4 m/S 748 mmHg 87%
    19:00 +29°C° 1,1 mm 4 m/S 748 mmHg 89%
    20:00 +28°C° 1,1 mm 4 m/S 748 mmHg 91%
    21:00 +28°C° 0,8 mm 5 m/S 748 mmHg 92%
    22:00 +28°C° 0,8 mm 5 m/S 747 mmHg 92%
    23:00 +28°C° 0,8 mm 6 m/S 746 mmHg 92%
    Mehr zeigen